{"data":{"norad_id":55958,"intl_designator":"2023-037AW","name":"STARLINK-5928","alt_names":[],"object_type":"PAYLOAD","status":"ACTIVE","operator":null,"country":"US","launch_date":"2023-03-17","launch_site_code":"AFWTR","launch_vehicle":null,"mission":null,"orbit_class":"UNKNOWN","rcs_meters":null,"size_class":null,"mass_kg":null,"dimensions":null,"purposes":["comms"],"wikipedia_slug":null,"has_3d_model":false,"image_url":null,"decayed_at":null,"tle_current":{"epoch":"2026-05-25T04:50:32.007840Z","epoch_age_seconds":53740,"freshness":"FRESH","line1":"1 55958U 23037AW  26145.20175935 -.00002050  00000+0 -16410-3 0  9990","line2":"2 55958  70.0005  71.5580 0003084 274.9217  85.1590 14.98329810175937","mean_motion":14.9832981,"eccentricity":0.0003084,"inclination_deg":70.0005,"raan_deg":71.558,"arg_perigee_deg":274.9217,"mean_anomaly_deg":85.159,"bstar":-0.0001641,"rev_number":17593,"period_min":96.107011312816,"perigee_km":569.91303883503,"apogee_km":574.19991817258,"semimajor_km":6950.1934785038,"source":"CELESTRAK","updated_at":"2026-05-25T13:38:17.919610Z"}}}